Tracking 24120 objects as of 5-Dec-2021
HD Live streaming from Space Station
objects crossing your sky now

ARIANE 3 DEB

Track ARIANE 3 DEB now!
10-day predictions


NORAD ID: 22101
Int'l Code: 1988-063G
Perigee: 424.2 km
Apogee: 11,463.6 km
Inclination: 7.8 °
Period: 226.7 minutes
Semi major axis: 12314 km
RCS: 0.3069 m2 (medium)
Launch date: July 21, 1988
Source: France (FR)
Launch site: FRENCH GUIANA (FRGUI)

Note: This is SATELLITE DEBRIS
aabbcc
Your satellite tracking list
Your tracking list is empty




NASA's NSSDC Master Catalog

Two Line Element Set (TLE):
1 22101U 88063G   21338.48940758  .00008859  00000-0  49079-2 0  9994
2 22101   7.8273 123.3585 4482111 197.0124 140.9963  6.35268470228495
Source of the keplerian elements: AFSPC